sat.trackr.live / text

‹ back to catalog

STARLINK-5938

NORAD 55960 · 2023-037AY

PAYLOAD ACTIVE UNKNOWN

§ Identity

Operator
Country
US
Launch date
2023-03-17
Launch site
AFWTR
Launch vehicle
Mass (kg)
RCS (m²)

Purposes: comms

External: N2YO · Heavens-Above · Gunter

§ Orbital elements

Epoch: 2026-05-25T05:02:47.532768Z

Period
96.11 min
Inclination
70.0001°
Eccentricity
0.0003045
Mean motion
14.98332311 rev/d
Perigee alt
569.9 km
Apogee alt
574.2 km
Semi-major
6,950.2 km
B*
4.8511e-5
RAAN
71.5677°
Arg perigee
269.1347°
Mean anomaly
90.9463°
Rev number
17,593

§ Raw data

STARLINK-59381 55960U 23037AY  26145.21027237  .00000486  00000+0  48511-4 0  99922 55960  70.0001  71.5677 0003045 269.1347  90.9463 14.98332311175933

JSON: /api/v1/satellites/55960 · /tle

For live sub-satellite position, see the globe view (requires WebGL).

§ Visibility from observer

Set your observer location to see the next 7 days of passes ≥ 10°. The values pass through the URL so the page stays shareable.

No JS? Fill the form by hand. The geolocation button needs JavaScript.